TimeEST,TemperatureF,Dew PointF,Humidity,Sea Level PressureIn,VisibilityMPH,Wind Direction,Wind SpeedMPH,Gust SpeedMPH,PrecipitationIn,Events,Conditions,WindDirDegrees,DateUTC
12:53 AM,61.0,51.1,70,30.13,10.0,NW,10.4,17.3,N/A,,Clear,310,2013-01-18 05:53:00
1:53 AM,60.1,50.0,69,30.13,10.0,NW,9.2,17.3,N/A,,Clear,310,2013-01-18 06:53:00
2:53 AM,60.1,48.9,67,30.13,10.0,NW,9.2,18.4,N/A,,Clear,310,2013-01-18 07:53:00
3:53 AM,59.0,48.9,69,30.14,10.0,NW,8.1,-,N/A,,Clear,310,2013-01-18 08:53:00
4:53 AM,57.9,48.9,72,30.15,10.0,NW,9.2,-,N/A,,Clear,320,2013-01-18 09:53:00
5:53 AM,55.9,46.9,72,30.17,10.0,Variable,6.9,17.3,N/A,,Scattered Clouds,0,2013-01-18 10:53:00
6:53 AM,55.9,46.9,72,30.19,10.0,NW,11.5,16.1,N/A,,Scattered Clouds,320,2013-01-18 11:53:00
7:48 AM,55.4,46.4,72,30.21,10.0,NNW,12.7,18.4,N/A,,Overcast,330,2013-01-18 12:48:00
7:53 AM,55.9,46.9,72,30.22,10.0,NNW,12.7,20.7,N/A,,Overcast,330,2013-01-18 12:53:00
8:53 AM,55.9,46.0,69,30.24,10.0,NNW,10.4,-,N/A,,Overcast,330,2013-01-18 13:53:00
9:53 AM,57.0,46.9,69,30.26,10.0,North,9.2,-,N/A,,Overcast,350,2013-01-18 14:53:00
10:53 AM,57.0,46.9,69,30.26,10.0,Variable,4.6,-,N/A,,Overcast,0,2013-01-18 15:53:00
11:53 AM,60.1,48.0,64,30.23,10.0,North,5.8,-,N/A,,Overcast,350,2013-01-18 16:53:00
11:59 AM,60.8,48.2,63,30.23,10.0,Variable,3.5,-,N/A,,Overcast,0,2013-01-18 16:59:00
12:29 PM,60.8,48.2,63,30.21,10.0,Variable,6.9,-,N/A,,Overcast,0,2013-01-18 17:29:00
12:53 PM,61.0,48.9,64,30.20,10.0,Variable,5.8,-,N/A,,Overcast,0,2013-01-18 17:53:00
1:53 PM,63.0,50.0,63,30.18,10.0,North,5.8,-,N/A,,Overcast,350,2013-01-18 18:53:00
2:53 PM,64.0,50.0,60,30.17,10.0,Calm,Calm,-,N/A,,Overcast,0,2013-01-18 19:53:00
3:19 PM,64.4,50.0,59,30.17,10.0,NE,3.5,-,N/A,,Overcast,40,2013-01-18 20:19:00
3:53 PM,64.9,51.1,61,30.17,10.0,NE,3.5,-,N/A,,Overcast,50,2013-01-18 20:53:00
4:53 PM,66.0,53.1,63,30.18,10.0,Calm,Calm,-,N/A,,Overcast,0,2013-01-18 21:53:00
5:47 PM,66.2,55.4,68,30.19,10.0,East,3.5,-,0.00,Rain,Light Rain,90,2013-01-18 22:47:00
5:53 PM,64.9,55.9,73,30.19,10.0,SE,3.5,-,0.00,Rain,Light Rain,130,2013-01-18 22:53:00
6:19 PM,64.4,57.2,77,30.19,10.0,Calm,Calm,-,0.00,,Overcast,0,2013-01-18 23:19:00
6:53 PM,64.9,57.0,75,30.19,10.0,Calm,Calm,-,0.00,,Overcast,0,2013-01-18 23:53:00
7:53 PM,64.9,57.0,75,30.20,10.0,Calm,Calm,-,N/A,,Mostly Cloudy,0,2013-01-19 00:53:00
8:53 PM,64.9,57.9,78,30.20,10.0,Calm,Calm,-,0.00,,Overcast,0,2013-01-19 01:53:00
9:53 PM,64.9,57.9,78,30.21,10.0,WSW,3.5,-,N/A,,Overcast,250,2013-01-19 02:53:00
10:09 PM,66.2,57.2,73,30.21,10.0,Calm,Calm,-,N/A,,Overcast,0,2013-01-19 03:09:00
10:53 PM,64.9,57.9,78,30.20,10.0,Calm,Calm,-,0.00,Rain,Light Rain,0,2013-01-19 03:53:00
11:29 PM,64.4,59.0,83,30.19,10.0,WNW,3.5,-,0.00,,Overcast,300,2013-01-19 04:29:00
11:53 PM,63.0,59.0,87,30.19,10.0,West,3.5,-,0.00,Rain,Light Rain,260,2013-01-19 04:53:00